{"data":{"norad_id":69598,"intl_designator":"2026-140G","name":"KUIPER-00513","alt_names":[],"object_type":"PAYLOAD","status":"ACTIVE","operator":null,"country":"US","launch_date":"2026-06-17","launch_site_code":"FRGUI","launch_vehicle":null,"mission":null,"orbit_class":"UNKNOWN","rcs_meters":null,"size_class":null,"mass_kg":null,"dimensions":null,"purposes":[],"wikipedia_slug":null,"has_3d_model":false,"image_url":null,"decayed_at":null,"tle_current":{"epoch":"2026-09-19T20:37:27.370848Z","epoch_age_seconds":84395,"freshness":"FRESH","line1":"1 69598U 26140G   26262.85934457  .00001663  00000+0  24706-3 0  9990","line2":"2 69598  51.9008 317.0280 0000373  78.4377 281.6627 14.79932696 15578","mean_motion":14.79932696,"eccentricity":3.73e-5,"inclination_deg":51.9008,"raan_deg":317.028,"arg_perigee_deg":78.4377,"mean_anomaly_deg":281.6627,"bstar":0.00024706,"rev_number":1557,"period_min":97.301722158857,"perigee_km":629.27520260296,"apogee_km":629.79797505269,"semimajor_km":7007.6735888278,"source":"CELESTRAK","updated_at":"2026-09-20T09:00:25.000285Z"}}}